Time,TemperatureF,DewpointF,PressureIn,WindDirection,WindDirectionDegrees,WindSpeedMPH,WindSpeedGustMPH,Humidity,HourlyPrecipIn,Conditions,Clouds,dailyrainin,SoftwareType,DateUTC
2013-05-03 00:00:00,61.1,45.0,30.27,SE,130,4.0,-999.0,55,-99.99,,,0.00,weatherlink.com 1.10,2013-05-03 04:00:00,
2013-05-03 00:15:00,60.2,45.0,30.27,SE,132,5.0,-999.0,57,-99.99,,,0.00,weatherlink.com 1.10,2013-05-03 04:15:00,
2013-05-03 00:30:00,59.3,45.0,30.27,SE,144,5.0,-999.0,59,-99.99,,,0.00,weatherlink.com 1.10,2013-05-03 04:30:00,
2013-05-03 00:45:00,58.5,45.0,30.28,SSE,148,0.0,-999.0,62,-99.99,,,0.00,weatherlink.com 1.10,2013-05-03 04:45:00,
2013-05-03 01:00:00,58.5,45.0,30.28,SE,138,5.0,-999.0,61,-99.99,,,0.00,weatherlink.com 1.10,2013-05-03 05:00:00,
2013-05-03 01:15:00,58.3,45.0,30.27,SE,137,4.0,-999.0,61,-99.99,,,0.00,weatherlink.com 1.10,2013-05-03 05:15:00,
2013-05-03 01:30:00,58.1,45.0,30.27,SE,137,0.0,-999.0,61,-99.99,,,0.00,weatherlink.com 1.10,2013-05-03 05:30:00,
2013-05-03 01:45:00,57.6,44.0,30.27,SSE,167,1.0,-999.0,62,-99.99,,,0.00,weatherlink.com 1.10,2013-05-03 05:45:00,
2013-05-03 02:00:00,57.6,44.0,30.27,SE,136,5.0,-999.0,61,-99.99,,,0.00,weatherlink.com 1.10,2013-05-03 06:00:00,
2013-05-03 02:15:00,58.0,44.0,30.27,SE,128,5.0,-999.0,61,-99.99,,,0.00,weatherlink.com 1.10,2013-05-03 06:15:00,
2013-05-03 02:30:00,58.6,44.0,30.28,SE,140,6.0,-999.0,59,-99.99,,,0.00,weatherlink.com 1.10,2013-05-03 06:30:00,
2013-05-03 02:45:00,58.4,44.0,30.28,SE,124,4.0,-999.0,60,-99.99,,,0.00,weatherlink.com 1.10,2013-05-03 06:45:00,
2013-05-03 03:00:00,58.1,45.0,30.28,SSE,159,4.0,-999.0,61,-99.99,,,0.00,weatherlink.com 1.10,2013-05-03 07:00:00,
2013-05-03 03:15:00,57.7,45.0,30.28,SSE,166,1.0,-999.0,62,-99.99,,,0.00,weatherlink.com 1.10,2013-05-03 07:15:00,
2013-05-03 03:30:00,55.1,44.0,30.29,WSW,252,4.0,-999.0,66,-99.99,,,0.00,weatherlink.com 1.10,2013-05-03 07:30:00,
2013-05-03 03:45:00,56.1,44.0,30.29,SSW,212,0.0,-999.0,64,-99.99,,,0.00,weatherlink.com 1.10,2013-05-03 07:45:00,
2013-05-03 04:00:00,55.6,44.0,30.29,SSW,209,3.0,-999.0,66,-99.99,,,0.00,weatherlink.com 1.10,2013-05-03 08:00:00,
2013-05-03 04:15:00,54.6,44.0,30.29,SSW,209,3.0,-999.0,67,-99.99,,,0.00,weatherlink.com 1.10,2013-05-03 08:15:00,
2013-05-03 04:30:00,55.4,45.0,30.29,SSW,209,2.0,-999.0,67,-99.99,,,0.00,weatherlink.com 1.10,2013-05-03 08:30:00,
2013-05-03 04:45:00,55.0,44.0,30.29,SSW,209,1.0,-999.0,67,-99.99,,,0.00,weatherlink.com 1.10,2013-05-03 08:45:00,
2013-05-03 05:01:00,55.6,43.0,30.29,SSW,205,0.0,-999.0,64,-99.99,,,0.00,weatherlink.com 1.10,2013-05-03 09:01:00,
2013-05-03 05:16:00,51.4,44.0,30.29,SSW,205,0.0,-999.0,75,-99.99,,,0.00,weatherlink.com 1.10,2013-05-03 09:16:00,
2013-05-03 05:31:00,50.8,46.0,30.30,SSW,205,0.0,-999.0,82,-99.99,,,0.00,weatherlink.com 1.10,2013-05-03 09:31:00,
2013-05-03 05:46:00,53.0,45.0,30.30,SSW,204,3.0,-999.0,73,-99.99,,,0.00,weatherlink.com 1.10,2013-05-03 09:46:00,
2013-05-03 06:01:00,57.5,43.0,30.30,South,190,3.0,-999.0,59,-99.99,,,0.00,weatherlink.com 1.10,2013-05-03 10:01:00,
2013-05-03 06:16:00,58.6,42.0,30.30,South,180,3.0,-999.0,55,-99.99,,,0.00,weatherlink.com 1.10,2013-05-03 10:16:00,
2013-05-03 06:31:00,58.6,42.0,30.31,South,173,4.0,-999.0,55,-99.99,,,0.00,weatherlink.com 1.10,2013-05-03 10:31:00,
2013-05-03 06:46:00,59.1,43.0,30.31,South,174,1.0,-999.0,55,-99.99,,,0.00,weatherlink.com 1.10,2013-05-03 10:46:00,
2013-05-03 07:01:00,60.2,43.0,30.31,SSE,148,2.0,-999.0,54,-99.99,,,0.00,weatherlink.com 1.10,2013-05-03 11:01:00,
2013-05-03 07:16:00,61.6,45.0,30.31,SE,140,5.0,-999.0,54,-99.99,,,0.00,weatherlink.com 1.10,2013-05-03 11:16:00,
2013-05-03 07:31:00,62.6,44.0,30.31,SE,139,8.0,-999.0,51,-99.99,,,0.00,weatherlink.com 1.10,2013-05-03 11:31:00,
2013-05-03 07:46:00,63.5,45.0,30.31,SSE,157,7.0,-999.0,51,-99.99,,,0.00,weatherlink.com 1.10,2013-05-03 11:46:00,
2013-05-03 08:01:00,64.0,45.0,30.31,SSW,192,5.0,-999.0,50,-99.99,,,0.00,weatherlink.com 1.10,2013-05-03 12:01:00,
2013-05-03 08:16:00,64.5,45.0,30.31,South,188,4.0,-999.0,50,-99.99,,,0.00,weatherlink.com 1.10,2013-05-03 12:16:00,
2013-05-03 08:31:00,65.6,46.0,30.31,SSW,207,5.0,-999.0,49,-99.99,,,0.00,weatherlink.com 1.10,2013-05-03 12:31:00,
2013-05-03 08:46:00,66.0,45.0,30.32,SSE,165,2.0,-999.0,47,-99.99,,,0.00,weatherlink.com 1.10,2013-05-03 12:46:00,
2013-05-03 09:01:00,66.9,45.0,30.32,SW,215,0.0,-999.0,45,-99.99,,,0.00,weatherlink.com 1.10,2013-05-03 13:01:00,
2013-05-03 09:16:00,67.6,45.0,30.32,South,170,0.0,-999.0,44,-99.99,,,0.00,weatherlink.com 1.10,2013-05-03 13:16:00,
2013-05-03 09:31:00,68.3,46.0,30.31,South,175,0.0,-999.0,45,-99.99,,,0.00,weatherlink.com 1.10,2013-05-03 13:31:00,
2013-05-03 09:46:00,69.3,44.0,30.31,South,191,3.0,-999.0,41,-99.99,,,0.00,weatherlink.com 1.10,2013-05-03 13:46:00,
2013-05-03 10:01:00,70.2,45.0,30.31,SSW,211,0.0,-999.0,41,-99.99,,,0.00,weatherlink.com 1.10,2013-05-03 14:01:00,
2013-05-03 10:16:00,71.4,44.0,30.30,SW,219,7.0,-999.0,37,-99.99,,,0.00,weatherlink.com 1.10,2013-05-03 14:16:00,
2013-05-03 10:31:00,72.0,45.0,30.31,NE,56,0.0,-999.0,38,-99.99,,,0.00,weatherlink.com 1.10,2013-05-03 14:31:00,
2013-05-03 10:46:00,72.2,44.0,30.31,SW,229,14.0,-999.0,36,-99.99,,,0.00,weatherlink.com 1.10,2013-05-03 14:46:00,
2013-05-03 11:01:00,72.8,44.0,30.30,SSW,204,10.0,-999.0,36,-99.99,,,0.00,weatherlink.com 1.10,2013-05-03 15:01:00,
2013-05-03 11:16:00,73.1,44.0,30.30,SSE,163,0.0,-999.0,35,-99.99,,,0.00,weatherlink.com 1.10,2013-05-03 15:16:00,
2013-05-03 11:31:00,72.6,46.0,30.30,NNE,28,0.0,-999.0,39,-99.99,,,0.00,weatherlink.com 1.10,2013-05-03 15:31:00,
2013-05-03 11:46:00,72.6,48.0,30.30,North,9,0.0,-999.0,42,-99.99,,,0.00,weatherlink.com 1.10,2013-05-03 15:46:00,
2013-05-03 12:01:00,72.7,46.0,30.30,East,84,2.0,-999.0,38,-99.99,,,0.00,weatherlink.com 1.10,2013-05-03 16:01:00,
2013-05-03 12:17:00,73.5,47.0,30.30,East,101,5.0,-999.0,39,-99.99,,,0.00,weatherlink.com 1.10,2013-05-03 16:17:00,
2013-05-03 12:32:00,72.7,46.0,30.30,SE,130,7.0,-999.0,39,-99.99,,,0.00,weatherlink.com 1.10,2013-05-03 16:32:00,
2013-05-03 12:47:00,73.0,47.0,30.29,SE,130,4.0,-999.0,40,-99.99,,,0.00,weatherlink.com 1.10,2013-05-03 16:47:00,
2013-05-03 13:02:00,72.3,47.0,30.29,East,88,0.0,-999.0,41,-99.99,,,0.00,weatherlink.com 1.10,2013-05-03 17:02:00,
2013-05-03 13:17:00,72.9,47.0,30.29,ENE,72,3.0,-999.0,40,-99.99,,,0.00,weatherlink.com 1.10,2013-05-03 17:17:00,
2013-05-03 13:32:00,72.1,46.0,30.28,NNE,22,2.0,-999.0,39,-99.99,,,0.00,weatherlink.com 1.10,2013-05-03 17:32:00,
2013-05-03 13:47:00,71.9,46.0,30.28,NE,41,5.0,-999.0,40,-99.99,,,0.00,weatherlink.com 1.10,2013-05-03 17:47:00,
2013-05-03 14:02:00,72.2,46.0,30.28,ESE,114,0.0,-999.0,39,-99.99,,,0.00,weatherlink.com 1.10,2013-05-03 18:02:00,
2013-05-03 14:17:00,72.5,46.0,30.27,ESE,106,0.0,-999.0,39,-99.99,,,0.00,weatherlink.com 1.10,2013-05-03 18:17:00,
2013-05-03 14:32:00,73.1,47.0,30.27,NE,44,0.0,-999.0,39,-99.99,,,0.00,weatherlink.com 1.10,2013-05-03 18:32:00,
2013-05-03 14:47:00,73.3,46.0,30.27,NNE,28,5.0,-999.0,38,-99.99,,,0.00,weatherlink.com 1.10,2013-05-03 18:47:00,
2013-05-03 15:02:00,72.5,47.0,30.26,NNE,26,7.0,-999.0,41,-99.99,,,0.00,weatherlink.com 1.10,2013-05-03 19:02:00,
2013-05-03 15:17:00,72.8,48.0,30.25,NE,34,0.0,-999.0,42,-99.99,,,0.00,weatherlink.com 1.10,2013-05-03 19:17:00,
2013-05-03 15:32:00,72.6,47.0,30.25,NE,49,6.0,-999.0,41,-99.99,,,0.00,weatherlink.com 1.10,2013-05-03 19:32:00,
2013-05-03 15:47:00,72.7,49.0,30.24,SE,142,4.0,-999.0,43,-99.99,,,0.00,weatherlink.com 1.10,2013-05-03 19:47:00,
2013-05-03 16:02:00,72.4,48.0,30.24,NNE,32,6.0,-999.0,42,-99.99,,,0.00,weatherlink.com 1.10,2013-05-03 20:02:00,
2013-05-03 16:17:00,72.4,49.0,30.23,NNE,15,4.0,-999.0,43,-99.99,,,0.00,weatherlink.com 1.10,2013-05-03 20:17:00,
2013-05-03 16:32:00,72.1,49.0,30.23,NNE,25,0.0,-999.0,44,-99.99,,,0.00,weatherlink.com 1.10,2013-05-03 20:32:00,
2013-05-03 16:47:00,71.8,50.0,30.23,ESE,112,0.0,-999.0,46,-99.99,,,0.00,weatherlink.com 1.10,2013-05-03 20:47:00,
2013-05-03 17:02:00,72.2,50.0,30.22,NNE,28,5.0,-999.0,46,-99.99,,,0.00,weatherlink.com 1.10,2013-05-03 21:02:00,
2013-05-03 17:17:00,72.2,50.0,30.22,ENE,67,0.0,-999.0,45,-99.99,,,0.00,weatherlink.com 1.10,2013-05-03 21:17:00,
2013-05-03 17:32:00,72.2,50.0,30.22,ESE,115,2.0,-999.0,45,-99.99,,,0.00,weatherlink.com 1.10,2013-05-03 21:32:00,
2013-05-03 17:47:00,72.2,50.0,30.21,NE,44,0.0,-999.0,45,-99.99,,,0.00,weatherlink.com 1.10,2013-05-03 21:47:00,
2013-05-03 18:02:00,73.3,49.0,30.21,ENE,59,0.0,-999.0,43,-99.99,,,0.00,weatherlink.com 1.10,2013-05-03 22:02:00,
2013-05-03 18:17:00,73.8,48.0,30.21,SE,132,1.0,-999.0,40,-99.99,,,0.00,weatherlink.com 1.10,2013-05-03 22:17:00,
2013-05-03 18:32:00,73.1,47.0,30.21,ESE,109,13.0,-999.0,39,-99.99,,,0.00,weatherlink.com 1.10,2013-05-03 22:32:00,
2013-05-03 18:47:00,72.2,47.0,30.20,ENE,78,11.0,-999.0,41,-99.99,,,0.00,weatherlink.com 1.10,2013-05-03 22:47:00,
2013-05-03 19:02:00,71.5,47.0,30.20,WSW,256,0.0,-999.0,42,-99.99,,,0.00,weatherlink.com 1.10,2013-05-03 23:02:00,
2013-05-03 19:17:00,71.1,47.0,30.20,ENE,66,3.0,-999.0,43,-99.99,,,0.00,weatherlink.com 1.10,2013-05-03 23:17:00,
2013-05-03 19:32:00,70.3,45.0,30.20,SE,126,5.0,-999.0,40,-99.99,,,0.00,weatherlink.com 1.10,2013-05-03 23:32:00,
2013-05-03 19:47:00,69.3,44.0,30.21,SSE,148,0.0,-999.0,41,-99.99,,,0.00,weatherlink.com 1.10,2013-05-03 23:47:00,
2013-05-03 20:02:00,68.3,45.0,30.21,East,93,6.0,-999.0,43,-99.99,,,0.00,weatherlink.com 1.10,2013-05-04 00:02:00,
2013-05-03 20:17:00,67.1,46.0,30.21,ESE,123,4.0,-999.0,47,-99.99,,,0.00,weatherlink.com 1.10,2013-05-04 00:17:00,
2013-05-03 20:32:00,66.0,46.0,30.21,ESE,105,0.0,-999.0,49,-99.99,,,0.00,weatherlink.com 1.10,2013-05-04 00:32:00,
2013-05-03 21:02:00,65.5,47.0,30.22,East,101,4.0,-999.0,52,-99.99,,,0.00,weatherlink.com 1.10,2013-05-04 01:02:00,
2013-05-03 21:17:00,65.5,47.0,30.23,East,101,9.0,-999.0,52,-99.99,,,0.00,weatherlink.com 1.10,2013-05-04 01:17:00,
2013-05-03 21:32:00,65.0,47.0,30.23,ESE,114,5.0,-999.0,53,-99.99,,,0.00,weatherlink.com 1.10,2013-05-04 01:32:00,
2013-05-03 21:47:00,64.5,47.0,30.23,East,98,5.0,-999.0,54,-99.99,,,0.00,weatherlink.com 1.10,2013-05-04 01:47:00,
2013-05-03 22:02:00,64.0,47.0,30.23,ESE,108,4.0,-999.0,55,-99.99,,,0.00,weatherlink.com 1.10,2013-05-04 02:02:00,
2013-05-03 22:17:00,63.5,47.0,30.23,SE,133,4.0,-999.0,56,-99.99,,,0.00,weatherlink.com 1.10,2013-05-04 02:17:00,
2013-05-03 22:32:00,63.3,47.0,30.23,ESE,119,2.0,-999.0,55,-99.99,,,0.00,weatherlink.com 1.10,2013-05-04 02:32:00,
2013-05-03 22:47:00,63.1,46.0,30.23,East,99,8.0,-999.0,55,-99.99,,,0.00,weatherlink.com 1.10,2013-05-04 02:47:00,
2013-05-03 23:02:00,62.7,47.0,30.23,SE,126,4.0,-999.0,56,-99.99,,,0.00,weatherlink.com 1.10,2013-05-04 03:02:00,
2013-05-03 23:17:00,62.2,47.0,30.23,SE,132,6.0,-999.0,57,-99.99,,,0.00,weatherlink.com 1.10,2013-05-04 03:17:00,
2013-05-03 23:32:00,61.5,46.0,30.23,SE,132,4.0,-999.0,58,-99.99,,,0.00,weatherlink.com 1.10,2013-05-04 03:32:00,
2013-05-03 23:47:00,61.0,47.0,30.23,SE,146,4.0,-999.0,60,-99.99,,,0.00,weatherlink.com 1.10,2013-05-04 03:47:00,